Location: Aubrey
(33.1990°N, 85.1361°W)
Time: 00:35:40
(UTC+00:00)

X-37B - Pass Details

Date: 25 September 2021
Orbit: 385 x 389 km, 45.0° (Epoch: 13 October)

Event Time Altitude Azimuth Distance (km) Brightness Sun altitude
Exits shadow 09:50:06 15° 360° (N) 1,145 3.1 -21.7°
Drops below altitude 10° 09:51:27 10° 24° (NNE) 1,412 3.9 -21.5°
Sets 09:54:04 0° 47° (NE) 2,269 5.5 -20.9°
